Temperature
24 24 23 22 21 22 25 28 29 29 29 29 28 28 27 26 25 23 22 23 23 22 21 21 21 21 21 21 20 20 20 20 20 20 20 20 20 20 20 20 20 20 20 20 20 20 20 20 20
25 24 23 22 22 23 25 28 29 30 29 29 28 28 27 25 23 22 22 22 23 23 22 21 21 21 21 21 20 20 20 20 20 20 20 20 20 20 20 20 20 20 20 20 20 20 20 20 20
25 25 24 22 23 24 26 28 30 31 31 30 28 28 27 25 23 23 23 23 23 23 22 22 21 21 21 21 20 20 20 20 20 20 20 20 20 20 20 20 20 20 20 20 20 20 20 20 20
25 25 24 22 25 26 27 29 30 30 30 29 28 26 26 25 25 25 24 23 23 23 22 22 22 21 21 21 20 20 20 20 20 20 20 20 20 20 20 20 20 20 20 20 20 20 20 20 20
25 25 23 23 25 28 29 29 30 30 30 28 27 26 25 26 26 25 24 24 24 23 23 22 22 22 21 21 21 20 20 20 20 20 20 20 20 20 20 20 20 20 20 20 20 20 20 20 20
26 24 23 24 27 29 30 31 31 30 29 28 27 25 24 25 25 24 24 24 24 24 23 23 22 22 21 21 21 21 20 20 20 20 20 20 20 20 20 20 20 20 20 20 20 20 20 19 19
26 23 24 26 27 29 31 32 31 30 29 29 27 25 24 23 25 24 24 24 24 24 24 23 22 22 22 21 21 21 21 21 20 20 20 20 20 20 20 20 20 20 20 20 20 20 20 19 19
27 23 25 25 28 29 32 32 32 31 30 29 28 25 24 24 24 24 23 24 24 24 24 23 23 23 22 22 21 21 21 21 21 20 20 20 20 20 20 20 20 20 20 20 20 20 19 19 19
28 23 23 26 28 29 31 32 32 32 31 30 29 28 27 25 24 23 22 23 23 23 23 23 23 23 22 22 22 21 21 21 21 20 20 20 20 20 20 20 20 19 19 19 19 19 19 19 19
27 23 25 27 29 29 30 31 31 30 29 28 28 28 27 25 24 24 23 23 23 23 23 23 23 23 22 22 22 22 21 21 21 21 20 20 20 20 20 20 19 19 19 19 19 19 19 19 19
27 25 26 28 30 31 31 31 32 29 27 27 27 27 26 25 25 25 24 24 23 23 23 22 22 22 22 22 22 22 21 21 21 21 20 20 20 20 20 20 19 19 19 19 19 19 19 19 19
27 27 28 30 31 31 31 31 31 30 29 30 30 28 27 26 25 25 24 24 24 23 23 23 22 22 22 22 22 22 21 21 21 21 20 20 20 20 20 20 19 19 19 19 19 19 19 19 18
26 27 29 30 30 31 31 31 31 31 31 30 29 28 27 26 26 26 25 24 24 23 23 22 22 22 21 21 21 21 21 20 20 20 20 20 20 20 20 19 19 19 19 19 19 18 18 18 18
27 28 29 30 30 30 30 30 30 31 30 29 28 27 27 27 26 25 25 24 24 23 23 23 22 22 21 21 21 21 20 20 20 20 20 20 20 20 20 19 19 19 19 19 18 18 18 18 18
28 27 26 27 29 29 29 28 28 31 30 28 27 26 26 26 26 25 25 24 24 23 23 23 22 21 21 21 20 20 20 20 19 20 20 20 20 20 19 19 19 19 19 19 18 18 18 18 18
26 25 25 25 27 28 28 26 28 30 29 27 26 25 24 24 24 24 24 23 23 23 23 22 21 21 21 20 20 20 20 20 19 19 19 19 19 19 19 19 19 19 19 19 18 18 18 18 18
23 23 24 25 27 27 26 26 28 29 28 25 25 23 23 23 23 23 23 22 22 22 22 22 21 21 21 20 20 20 20 20 20 20 20 20 19 19 19 19 19 19 19 19 18 18 18 18 18
23 24 25 26 27 27 26 27 27 28 27 25 24 23 22 22 22 22 22 22 22 22 22 21 21 20 20 19 19 19 19 19 19 19 19 19 19 19 19 19 19 18 18 18 18 18 18 18 18
25 25 25 26 27 26 26 26 27 26 25 23 22 22 21 21 22 22 22 22 22 22 21 21 20 20 20 19 19 19 19 19 19 19 19 19 19 19 19 18 18 18 18 18 18 18 18 18 18
26 25 25 25 26 26 26 25 25 24 24 23 22 21 21 21 22 23 23 22 22 21 21 21 20 20 19 19 19 18 18 18 18 18 19 19 19 18 18 18 18 18 18 18 17 18 17 17 17
26 25 25 25 24 24 24 22 22 22 22 22 21 21 22 22 23 23 23 23 23 22 22 21 20 20 19 19 18 18 18 18 18 18 18 18 18 18 18 18 18 18 18 17 17 17 17 17 17
24 26 26 25 23 21 23 21 21 21 21 20 21 21 22 22 22 22 23 23 23 22 22 21 20 20 19 18 18 18 17 17 17 17 17 17 17 17 17 17 17 17 17 17 17 17 17 16 16
26 26 25 24 23 21 21 21 20 20 20 20 20 21 22 22 23 23 23 23 23 22 21 21 20 20 19 18 18 17 17 17 17 17 17 17 17 17 17 17 17 17 17 17 17 16 16 16 16
26 24 22 20 19 20 21 21 20 19 20 20 20 21 22 23 23 23 23 23 22 22 21 21 20 19 19 18 17 17 17 16 16 16 16 16 16 16 16 16 16 16 16 16 16 16 16 16 15
24 20 19 19 18 19 20 20 19 20 20 20 21 22 23 23 23 23 23 22 22 21 21 20 20 19 18 18 17 17 16 16 16 16 16 16 16 16 16 16 15 15 15 15 15 15 15 15 15
25 21 19 19 19 19 20 20 20 21 21 22 23 23 23 23 23 23 23 22 22 21 21 20 19 19 18 17 17 16 16 15 15 15 15 15 15 15 15 15 15 15 15 15 15 15 15 15 14
25 22 20 18 19 19 19 21 21 21 21 21 22 23 23 24 23 23 23 22 22 21 21 20 19 19 18 17 16 16 15 15 15 14 14 14 14 14 14 14 14 14 14 14 14 14 14 14 14
25 23 18 19 19 18 19 20 19 20 20 20 20 22 23 24 23 23 23 22 22 21 21 20 19 18 18 17 16 15 15 14 14 14 14 14 13 13 13 13 13 13 14 14 14 14 14 14 14
23 23 20 17 17 18 18 18 20 20 19 19 20 22 23 23 23 23 22 22 22 21 21 20 19 18 18 17 16 15 15 14 14 13 13 13 13 13 13 13 13 13 13 13 13 13 13 13 13
24 23 20 19 19 17 17 17 19 19 19 20 20 21 21 21 22 22 22 22 21 21 20 20 19 18 18 16 16 15 14 14 13 13 13 12 12 12 12 12 12 12 12 13 13 13 13 13 13
Wind_Speed
3 5 3 1 2 4 3 2 6 9 7 8 11 10 8 5 3 4 6 18 20 18 19 23 24 23 21 19 18 17 16 16 15 15 14 14 13 13 12 11 11 11 10 10 9 9 9 8 8
3 3 2 2 4 4 3 1 6 8 9 10 11 9 7 6 8 10 8 17 22 19 19 21 24 23 22 20 18 17 17 16 15 14 14 13 12 12 11 10 10 9 9 9 8 8 7 7 6
3 3 2 3 2 1 3 1 4 7 9 7 6 5 5 7 10 8 11 20 19 16 18 22 25 23 22 20 19 18 17 16 15 15 14 13 12 11 11 10 9 9 8 8 7 7 7 7 6
1 2 3 4 4 4 4 5 1 7 8 7 8 6 4 5 8 12 20 21 19 14 16 22 24 23 22 20 19 18 17 16 16 15 14 13 12 12 11 10 10 9 8 8 7 7 7 7 7
3 3 4 2 4 4 3 4 2 6 5 7 10 6 4 5 18 23 21 21 20 14 15 20 23 23 22 21 19 18 17 17 16 15 14 14 13 12 12 11 10 10 9 8 8 8 8 8 8
3 4 3 3 5 4 3 4 5 10 9 9 9 6 4 11 19 21 20 18 19 18 15 19 23 22 21 20 19 18 17 17 16 15 15 14 13 13 13 12 12 11 11 10 10 10 10 10 10
3 2 2 4 5 3 3 4 8 9 9 8 10 7 6 12 17 19 18 17 17 16 14 14 19 20 21 20 20 19 18 17 16 16 15 15 14 14 14 13 13 13 13 13 12 12 12 12 12
4 3 4 5 4 3 5 1 6 10 7 10 9 10 8 12 17 17 15 15 15 14 13 10 14 16 17 18 20 19 18 18 17 17 16 15 15 15 15 15 15 15 15 16 15 15 15 14 14
2 4 3 4 4 6 7 4 2 4 6 5 5 7 11 17 18 18 14 12 12 13 11 10 10 11 14 15 18 19 19 18 18 17 17 16 14 14 15 16 17 18 18 18 18 18 17 16 16
4 3 7 6 5 5 7 6 4 6 8 6 7 8 15 16 18 19 18 17 15 15 13 12 11 10 12 14 14 14 15 15 16 14 15 15 14 15 15 17 20 21 21 20 20 20 18 17 14
4 7 7 8 7 4 6 7 5 7 5 8 13 16 17 15 14 15 16 18 17 16 16 14 13 11 11 8 9 10 11 12 14 15 16 14 13 13 14 12 15 18 20 17 16 17 15 13 12
5 9 9 8 6 5 4 5 5 1 7 11 17 20 19 17 16 15 15 16 15 16 16 15 14 13 12 9 7 9 8 8 10 15 17 13 8 8 9 9 11 12 13 11 11 9 11 12 14
7 8 7 7 7 6 5 5 4 4 4 10 14 15 17 17 15 12 12 14 14 15 15 15 14 14 13 10 7 9 8 9 12 14 17 16 9 10 9 7 9 10 11 9 8 8 8 8 10
6 6 7 7 9 6 4 7 5 6 4 10 13 14 13 14 14 10 8 9 12 13 13 14 15 14 12 11 10 9 8 10 11 12 16 19 15 10 10 9 8 8 10 10 8 9 9 9 8
7 7 10 8 7 5 5 8 7 7 4 8 11 10 8 6 7 8 8 7 7 8 8 10 12 12 12 11 10 8 8 9 8 11 17 19 18 13 11 10 9 8 10 9 7 7 5 6 7
6 6 6 10 6 8 3 7 8 2 8 9 10 10 10 7 7 7 8 6 4 4 4 4 7 9 10 9 8 6 5 5 5 8 10 15 17 16 10 10 9 7 7 6 6 5 5 5 5
6 4 8 12 8 6 6 5 5 4 13 12 12 14 15 14 13 11 11 9 6 5 4 4 3 5 6 6 6 6 5 5 4 5 5 8 12 15 9 10 8 6 5 5 5 4 4 5 5
6 6 6 7 8 5 6 3 1 6 13 12 12 13 14 15 12 11 11 9 7 6 6 4 2 2 1 2 4 5 7 7 6 5 5 7 8 10 8 8 8 6 5 5 4 4 4 4 5
6 4 5 6 8 7 6 4 5 5 8 10 10 12 13 12 9 10 10 9 8 6 7 4 3 2 1 2 3 5 6 6 6 7 7 7 7 8 7 8 7 6 6 7 6 5 5 5 4
2 4 5 5 8 7 6 6 7 6 2 7 10 11 11 9 8 8 8 8 8 7 7 5 4 3 2 1 2 4 4 5 6 6 7 7 7 7 8 8 7 7 7 8 8 7 5 5 5
4 3 3 4 6 6 6 8 8 7 7 8 7 8 10 11 9 6 6 6 7 6 6 5 4 3 1 1 1 2 3 3 4 4 5 6 6 7 7 8 7 7 7 8 8 8 8 7 5
3 2 5 6 6 5 4 3 7 3 6 5 5 5 6 7 7 6 6 5 5 5 5 5 4 3 2 1 1 1 2 4 5 5 5 7 6 7 6 6 6 7 7 8 8 8 7 7 6
1 3 6 5 4 4 5 1 6 2 2 4 5 6 6 7 8 8 8 8 7 6 6 5 4 3 2 1 1 1 3 4 5 5 6 6 6 6 5 5 5 6 6 8 8 8 8 7 7
3 7 9 8 5 2 4 1 6 4 6 5 5 6 8 8 8 8 8 7 6 6 5 5 4 2 1 1 0 1 3 5 6 6 6 6 5 5 5 5 5 5 6 7 8 8 8 7 7
7 7 6 7 6 5 4 0 7 8 6 8 8 9 10 9 9 9 9 9 8 7 6 5 5 3 2 1 1 1 3 4 5 6 6 6 5 5 6 5 5 5 6 6 7 7 7 7 7
1 8 6 3 4 6 4 1 7 6 6 8 9 9 10 10 9 10 11 10 9 9 8 7 6 5 3 2 1 1 2 2 3 5 5 5 5 6 6 6 5 6 5 5 5 5 6 5 6
1 2 8 7 2 2 4 3 5 3 4 7 9 8 10 10 10 10 9 8 8 9 8 8 7 5 4 3 2 2 1 2 3 4 4 4 5 6 6 6 5 4 3 3 3 4 5 5 5
4 4 6 4 1 3 6 4 4 7 9 9 9 10 10 8 7 7 7 7 8 8 7 7 7 7 5 4 3 2 1 2 2 3 4 5 5 6 6 5 4 3 2 1 1 2 4 5 4
3 1 4 4 5 5 4 6 5 7 7 7 7 5 4 4 4 5 6 7 7 7 7 7 7 6 5 5 4 3 2 1 1 2 3 4 5 5 5 4 3 2 2 0 1 2 3 5 5
2 3 5 3 5 5 4 6 10 6 6 5 6 6 7 6 4 2 3 4 5 7 7 8 7 7 6 6 5 4 3 2 1 2 3 3 4 5 4 4 3 2 2 1 3 5 6 7 7
Wind_Direction
229 187 151 105 48 30 1 42 92 73 63 74 79 82 83 67 125 146 126 141 140 147 154 154 154 153 151 150 148 146 144 142 140 138 138 137 135 133 131 130 129 127 126 125 125 122 120 119 118
244 186 135 53 58 24 334 31 90 110 133 112 84 84 84 79 93 110 125 145 143 147 152 154 155 155 153 153 152 151 151 150 149 149 149 149 149 148 146 144 142 141 139 139 139 139 139 140 142
242 192 113 48 27 250 274 264 105 105 119 107 89 62 78 116 116 127 147 144 142 147 151 157 157 156 156 157 157 157 157 158 158 160 161 162 163 163 162 161 161 158 157 158 158 159 161 165 171
193 57 41 43 305 263 232 252 211 98 85 84 99 69 51 109 126 138 142 145 144 147 152 158 158 159 158 159 161 163 165 166 167 168 170 172 174 176 177 176 177 176 176 178 178 179 182 187 193
96 74 41 338 266 269 233 231 211 107 90 87 93 85 41 41 120 136 145 150 149 149 155 161 161 162 162 163 165 168 171 173 175 177 179 181 183 186 187 187 189 191 193 195 196 199 202 205 211
46 65 46 293 285 286 256 210 141 108 115 113 104 104 79 125 132 145 150 153 153 153 158 163 165 166 166 167 170 173 177 179 182 185 187 189 191 193 195 196 198 202 206 210 212 214 217 220 223
125 94 253 277 279 284 276 153 130 130 142 146 130 109 123 149 150 152 151 150 152 156 160 165 169 170 171 173 175 178 182 185 188 191 193 196 198 201 204 205 207 210 214 218 221 223 225 227 229
151 93 323 308 304 311 306 18 137 132 139 135 127 135 159 173 150 149 146 147 151 159 165 167 169 171 174 177 181 184 188 191 194 197 199 202 204 208 211 213 215 218 222 225 227 228 230 231 233
105 72 280 268 307 305 321 6 355 90 95 91 108 146 160 153 141 142 142 144 154 162 171 173 173 174 176 180 188 190 194 197 200 203 206 207 211 214 218 221 223 225 228 230 232 233 235 236 239
109 164 236 237 273 299 336 10 359 68 75 78 82 103 135 145 147 150 156 162 166 171 178 181 181 180 179 188 191 194 199 204 206 208 211 212 214 219 224 229 231 232 233 234 236 237 240 242 243
197 218 248 270 276 306 342 350 11 96 110 159 151 149 152 153 158 160 163 170 175 176 179 183 186 184 186 196 190 196 204 207 213 215 217 218 220 226 232 233 237 238 238 237 239 239 239 239 241
256 270 272 273 298 315 312 331 348 110 193 185 163 158 162 165 170 171 167 172 174 176 185 184 186 188 193 198 194 196 205 208 214 220 220 219 222 226 230 232 232 230 230 228 230 232 234 237 242
270 271 288 301 328 314 311 309 308 294 185 162 159 162 169 172 175 175 165 164 171 179 186 185 187 192 195 198 199 199 208 213 216 219 222 219 219 226 228 230 231 229 224 221 223 227 232 235 240
271 292 308 311 319 313 322 311 321 273 171 154 163 175 179 175 171 164 159 159 170 179 183 183 190 196 195 198 202 205 207 216 220 222 222 220 222 225 228 230 226 223 218 218 218 222 227 232 235
312 329 327 309 302 287 2 323 284 260 135 149 161 164 159 152 150 161 165 156 162 169 172 178 193 200 200 203 204 204 208 213 218 224 226 224 223 224 226 228 227 222 214 209 212 218 218 227 230
353 4 320 294 285 272 160 255 280 352 95 112 121 117 106 95 100 112 108 98 112 143 154 161 192 206 210 217 220 221 216 218 223 226 227 227 226 225 225 227 229 219 208 199 204 207 212 227 230
4 322 288 293 281 249 162 210 272 74 98 102 106 105 99 92 85 88 93 93 92 108 127 148 184 201 209 227 240 248 254 254 249 245 237 233 229 228 226 228 227 215 210 211 216 214 213 230 240
265 277 295 306 324 58 103 129 39 77 109 113 108 106 100 95 93 96 99 99 93 92 97 114 107 79 198 236 262 271 268 264 261 257 254 251 242 234 227 232 228 212 209 221 221 225 230 233 241
243 281 310 321 341 48 59 47 17 52 101 116 115 112 107 106 111 105 103 103 100 91 90 88 88 88 127 214 236 249 256 259 262 259 257 255 250 242 232 234 223 212 213 219 220 221 233 241 227
330 5 353 348 357 35 24 14 7 26 76 136 128 124 118 115 111 109 110 108 104 103 101 95 93 106 127 217 241 249 258 264 259 266 271 266 261 252 248 235 225 214 219 223 225 219 220 233 206
3 58 40 7 1 26 43 355 351 3 59 88 99 117 126 130 129 121 111 112 109 111 119 123 130 128 136 219 268 302 309 307 306 299 291 284 277 266 252 240 229 220 219 229 227 220 215 228 224
325 350 35 20 30 330 45 324 309 352 71 95 116 128 138 136 137 140 139 136 136 147 147 149 155 152 155 124 59 332 311 298 289 290 289 294 290 284 270 252 234 225 220 222 226 220 215 217 230
258 15 18 353 355 349 357 62 286 343 152 190 184 174 174 173 166 171 176 174 176 176 173 172 169 176 184 155 131 331 300 286 291 298 304 304 300 293 285 265 246 236 230 228 226 223 217 214 220
57 32 11 25 54 1 281 208 283 254 222 200 204 202 201 199 192 192 196 189 194 192 184 176 173 194 213 197 284 308 300 304 312 313 312 307 302 298 296 282 263 248 237 230 227 223 217 213 214
63 67 24 3 7 279 281 218 261 264 206 188 201 210 215 209 200 202 205 205 205 199 191 179 171 196 214 210 252 279 295 304 302 303 307 309 307 302 299 293 273 262 251 240 226 217 213 205 204
106 126 146 200 245 283 330 256 264 260 198 200 210 216 219 217 212 210 209 205 203 196 186 181 182 196 203 194 227 271 294 300 298 300 303 304 302 296 297 295 282 269 259 247 221 212 207 202 204
179 200 171 149 253 309 296 278 297 288 249 230 229 226 226 224 220 217 213 202 195 186 187 184 179 186 190 189 202 244 277 304 309 312 314 308 305 303 305 301 294 288 271 246 208 202 198 185 188
179 172 83 93 175 284 300 295 256 240 245 244 237 237 242 242 238 223 206 196 191 188 187 180 177 183 188 187 200 209 242 282 300 317 319 313 311 311 310 306 305 305 305 282 202 192 186 170 162
317 54 114 141 168 171 265 279 272 246 244 237 245 253 259 260 241 218 209 201 193 187 182 180 181 180 185 190 194 197 227 249 281 304 309 309 311 312 310 309 311 314 316 297 125 135 137 131 118
177 184 152 166 246 195 197 273 333 356 10 21 17 24 23 16 4 279 239 215 200 196 195 192 191 191 197 196 193 197 203 210 233 290 308 313 316 320 318 320 332 345 10 61 96 105 103 106 105
Height
1518 1516 1516 1515 1516 1522 1519 1504 1494 1493 1494 1495 1494 1497 1502 1505 1509 1517 1514 1515 1519 1522 1525 1529 1532 1534 1536 1538 1539 1541 1543 1544 1545 1546 1547 1548 1549 1550 1551 1551 1552 1552 1553 1553 1553 1554 1554 1555 1555
1518 1517 1516 1516 1522 1533 1521 1502 1496 1493 1495 1494 1496 1499 1502 1506 1507 1509 1512 1517 1520 1522 1525 1528 1531 1534 1536 1538 1539 1541 1542 1544 1545 1546 1547 1548 1549 1550 1550 1551 1551 1552 1552 1553 1553 1553 1554 1554 1555
1518 1517 1517 1518 1524 1529 1519 1501 1494 1493 1493 1494 1498 1502 1504 1507 1508 1510 1513 1517 1520 1523 1526 1528 1531 1533 1536 1537 1539 1541 1542 1543 1544 1545 1546 1547 1548 1549 1550 1550 1551 1551 1551 1552 1552 1553 1553 1553 1554
1518 1519 1519 1523 1524 1514 1507 1499 1494 1494 1496 1496 1499 1504 1507 1509 1509 1511 1514 1518 1520 1523 1526 1528 1531 1533 1535 1537 1538 1540 1541 1543 1544 1544 1545 1546 1547 1547 1548 1549 1549 1550 1550 1551 1551 1551 1552 1552 1553
1517 1518 1523 1529 1520 1506 1499 1496 1495 1494 1497 1500 1499 1505 1509 1510 1510 1512 1515 1518 1520 1523 1526 1529 1531 1533 1535 1537 1538 1539 1541 1542 1543 1543 1544 1545 1545 1546 1546 1547 1548 1548 1549 1549 1550 1550 1550 1551 1551
1518 1518 1530 1533 1518 1502 1496 1494 1495 1495 1498 1500 1501 1506 1510 1510 1511 1513 1516 1519 1521 1523 1525 1528 1531 1533 1535 1536 1538 1539 1540 1541 1542 1542 1543 1543 1544 1544 1545 1545 1546 1547 1547 1548 1548 1548 1549 1549 1549
1518 1522 1528 1523 1516 1504 1495 1492 1492 1494 1495 1497 1499 1505 1510 1512 1512 1514 1517 1520 1522 1524 1525 1528 1530 1532 1534 1536 1537 1538 1539 1540 1540 1541 1542 1542 1543 1543 1543 1544 1544 1545 1545 1546 1546 1547 1547 1547 1547
1516 1520 1524 1522 1514 1505 1493 1492 1491 1491 1493 1496 1497 1502 1507 1511 1512 1514 1517 1520 1522 1524 1525 1527 1529 1531 1533 1534 1536 1537 1537 1538 1539 1540 1540 1541 1541 1542 1542 1542 1543 1543 1543 1544 1544 1544 1544 1544 1544
1515 1524 1529 1520 1513 1504 1495 1493 1492 1492 1493 1495 1496 1498 1501 1507 1511 1514 1516 1518 1521 1523 1525 1527 1528 1530 1531 1533 1534 1535 1536 1537 1538 1538 1539 1539 1539 1540 1540 1540 1541 1541 1541 1541 1541 1542 1542 1542 1541
1514 1526 1519 1509 1505 1501 1496 1494 1493 1494 1495 1497 1498 1499 1502 1506 1509 1511 1512 1515 1518 1521 1523 1526 1527 1529 1530 1531 1533 1534 1535 1536 1536 1537 1537 1537 1538 1538 1538 1538 1538 1538 1538 1539 1539 1539 1539 1538 1538
1511 1514 1507 1503 1501 1499 1495 1493 1493 1495 1498 1496 1496 1498 1501 1505 1508 1510 1511 1513 1516 1520 1522 1524 1526 1528 1529 1530 1531 1532 1533 1534 1534 1535 1535 1535 1535 1535 1535 1535 1535 1535 1535 1535 1535 1535 1535 1535 1535
1509 1505 1503 1500 1498 1497 1495 1493 1492 1492 1494 1494 1494 1495 1498 1501 1504 1507 1510 1512 1515 1518 1520 1523 1525 1527 1528 1529 1530 1531 1531 1531 1532 1533 1533 1533 1533 1533 1532 1532 1532 1532 1532 1532 1532 1532 1532 1532 1532
1506 1502 1499 1497 1495 1495 1493 1492 1492 1491 1492 1493 1494 1495 1496 1498 1501 1505 1509 1511 1513 1516 1519 1521 1524 1525 1527 1528 1528 1529 1529 1530 1530 1530 1531 1530 1530 1530 1530 1529 1529 1528 1528 1529 1529 1529 1529 1529 1529
1503 1499 1496 1494 1493 1493 1493 1492 1492 1490 1491 1492 1493 1494 1496 1497 1500 1504 1508 1510 1512 1514 1517 1519 1521 1523 1525 1526 1526 1526 1527 1528 1528 1527 1528 1528 1527 1527 1526 1526 1525 1524 1524 1525 1525 1525 1525 1525 1525
1501 1499 1496 1492 1491 1491 1494 1497 1491 1489 1489 1491 1492 1495 1497 1499 1502 1505 1507 1510 1513 1515 1517 1519 1520 1521 1522 1524 1524 1524 1524 1524 1524 1523 1524 1524 1523 1523 1522 1521 1521 1520 1520 1520 1520 1520 1521 1520 1520
1503 1506 1510 1496 1491 1488 1498 1506 1491 1488 1488 1491 1494 1496 1498 1501 1504 1507 1510 1511 1513 1515 1517 1518 1518 1519 1518 1521 1522 1521 1522 1521 1521 1520 1520 1519 1518 1518 1517 1516 1516 1516 1516 1516 1516 1516 1516 1516 1516
1515 1520 1515 1501 1487 1486 1494 1501 1492 1489 1489 1492 1495 1498 1499 1502 1505 1507 1510 1512 1513 1515 1516 1516 1516 1517 1517 1519 1519 1518 1518 1518 1517 1517 1516 1515 1514 1513 1512 1511 1511 1511 1511 1512 1512 1512 1512 1511 1511
1524 1520 1513 1507 1491 1487 1494 1496 1491 1489 1490 1493 1496 1499 1500 1502 1505 1507 1509 1511 1512 1513 1514 1514 1515 1515 1515 1515 1515 1515 1514 1512 1511 1511 1510 1509 1508 1507 1506 1506 1505 1505 1505 1506 1506 1506 1506 1506 1506
1510 1511 1512 1504 1493 1493 1497 1496 1493 1492 1493 1496 1497 1499 1500 1502 1505 1506 1508 1510 1511 1511 1512 1512 1513 1513 1512 1512 1511 1510 1509 1507 1506 1505 1504 1503 1502 1501 1500 1499 1499 1499 1498 1498 1499 1500 1500 1500 1501
1506 1512 1512 1505 1496 1496 1500 1501 1497 1496 1497 1497 1498 1499 1500 1502 1504 1505 1506 1507 1508 1509 1510 1510 1511 1511 1510 1509 1508 1506 1504 1502 1500 1499 1497 1496 1495 1494 1494 1492 1492 1492 1492 1491 1492 1492 1493 1493 1495
1507 1511 1510 1509 1504 1501 1505 1513 1507 1501 1498 1500 1500 1500 1500 1500 1502 1503 1504 1505 1506 1507 1507 1508 1508 1508 1507 1505 1504 1501 1499 1496 1494 1492 1491 1489 1488 1487 1486 1485 1485 1484 1484 1484 1484 1486 1486 1487 1488
1512 1502 1502 1505 1514 1521 1514 1532 1515 1506 1504 1503 1502 1502 1501 1501 1502 1503 1504 1504 1504 1505 1505 1505 1505 1504 1502 1501 1499 1497 1494 1491 1489 1487 1485 1483 1482 1480 1479 1478 1477 1477 1477 1477 1477 1478 1479 1480 1480
1503 1498 1500 1504 1511 1521 1518 1528 1522 1510 1509 1505 1502 1501 1501 1501 1501 1501 1502 1502 1503 1503 1502 1502 1501 1500 1498 1497 1495 1492 1490 1488 1485 1482 1480 1478 1476 1474 1473 1471 1470 1470 1470 1470 1470 1470 1472 1472 1474
1497 1502 1507 1514 1523 1536 1523 1527 1528 1515 1507 1505 1503 1501 1500 1499 1499 1500 1500 1500 1500 1500 1500 1499 1498 1496 1495 1493 1491 1488 1486 1483 1480 1477 1475 1472 1470 1468 1467 1465 1464 1463 1463 1463 1463 1464 1465 1466 1467
1504 1524 1543 1544 1549 1543 1523 1527 1526 1505 1500 1500 1499 1498 1497 1497 1497 1497 1497 1497 1497 1497 1497 1496 1495 1493 1491 1489 1487 1485 1482 1479 1476 1473 1470 1467 1464 1462 1461 1459 1458 1457 1457 1457 1457 1457 1458 1459 1461
1506 1520 1545 1554 1554 1544 1527 1527 1517 1500 1496 1495 1495 1494 1494 1494 1494 1494 1494 1494 1494 1494 1494 1493 1492 1490 1488 1486 1484 1481 1478 1475 1472 1469 1466 1463 1461 1458 1456 1454 1453 1451 1451 1450 1451 1451 1452 1454 1456
1507 1514 1519 1537 1537 1542 1534 1520 1508 1499 1498 1495 1493 1492 1491 1491 1491 1491 1491 1491 1492 1491 1491 1490 1489 1487 1485 1483 1480 1478 1475 1472 1469 1466 1463 1460 1457 1454 1452 1450 1448 1447 1446 1445 1445 1446 1447 1449 1451
1500 1506 1524 1534 1545 1551 1538 1527 1522 1506 1500 1495 1492 1490 1489 1489 1489 1489 1490 1490 1489 1489 1488 1487 1486 1484 1482 1479 1477 1474 1471 1468 1465 1462 1460 1457 1454 1451 1449 1447 1445 1443 1442 1441 1441 1442 1443 1445 1447
1505 1508 1518 1531 1537 1547 1549 1537 1507 1500 1495 1493 1491 1490 1489 1489 1489 1488 1488 1488 1487 1486 1485 1484 1482 1480 1478 1476 1474 1471 1468 1466 1463 1460 1457 1454 1451 1449 1446 1444 1442 1441 1440 1439 1439 1439 1440 1442 1444
1500 1505 1515 1531 1532 1533 1541 1536 1505 1500 1496 1495 1494 1493 1492 1491 1490 1488 1487 1486 1485 1483 1482 1480 1479 1477 1475 1473 1470 1468 1466 1463 1460 1458 1455 1452 1449 1447 1444 1442 1440 1439 1438 1437 1437 1438 1439 1441 1443